TimeCST,TemperatureF,Dew PointF,Humidity,Sea Level PressureIn,VisibilityMPH,Wind Direction,Wind SpeedMPH,Gust SpeedMPH,PrecipitationIn,Events,Conditions,WindDirDegrees,DateUTC
12:15 AM,30.2,30.2,100,29.30,4.0,NNE,5.8,-,N/A,,Overcast,20,2013-02-11 06:15:00
12:35 AM,30.2,30.2,100,29.31,3.0,NNE,8.1,-,N/A,Snow,Light Snow,20,2013-02-11 06:35:00
12:55 AM,30.2,30.2,100,29.31,3.0,North,8.1,-,N/A,Snow,Light Snow,10,2013-02-11 06:55:00
1:15 AM,30.2,30.2,100,29.31,3.0,North,6.9,-,N/A,Snow,Light Snow,360,2013-02-11 07:15:00
1:35 AM,32.0,30.2,93,29.32,2.0,North,8.1,-,N/A,Snow,Light Snow,360,2013-02-11 07:35:00
1:55 AM,32.0,30.2,93,29.33,3.0,North,8.1,-,N/A,Snow,Light Snow,360,2013-02-11 07:55:00
2:15 AM,32.0,32.0,100,29.33,4.0,North,11.5,-,N/A,,Overcast,10,2013-02-11 08:15:00
2:35 AM,32.0,32.0,100,29.34,7.0,North,9.2,-,N/A,,Overcast,10,2013-02-11 08:35:00
2:55 AM,32.0,32.0,100,29.35,7.0,North,9.2,17.3,N/A,Snow,Light Snow,10,2013-02-11 08:55:00
3:15 AM,32.0,32.0,100,29.36,3.0,North,9.2,-,N/A,Snow,Light Snow,350,2013-02-11 09:15:00
3:35 AM,30.2,30.2,100,29.37,2.5,North,12.7,17.3,N/A,Snow,Light Snow,350,2013-02-11 09:35:00
3:55 AM,30.2,28.4,93,29.38,4.0,NNW,10.4,17.3,N/A,Snow,Light Snow,340,2013-02-11 09:55:00
4:15 AM,30.2,28.4,93,29.40,4.0,NNW,10.4,-,N/A,Snow,Light Snow,340,2013-02-11 10:15:00
4:35 AM,30.2,28.4,93,29.41,10.0,NNW,12.7,19.6,N/A,Snow,Light Snow,340,2013-02-11 10:35:00
4:55 AM,28.4,28.4,100,29.43,4.0,North,10.4,-,N/A,Snow,Light Snow,350,2013-02-11 10:55:00
5:15 AM,28.4,26.6,93,29.44,4.0,NNW,11.5,-,N/A,Snow,Light Snow,340,2013-02-11 11:15:00
5:35 AM,28.4,26.6,93,29.46,4.0,NNW,10.4,16.1,N/A,Snow,Light Snow,340,2013-02-11 11:35:00
5:55 AM,28.4,26.6,93,29.47,7.0,North,11.5,16.1,N/A,,Overcast,350,2013-02-11 11:55:00
6:15 AM,28.4,26.6,93,29.49,5.0,North,11.5,18.4,N/A,Snow,Light Snow,350,2013-02-11 12:15:00
6:35 AM,28.4,26.6,93,29.50,5.0,NNW,10.4,-,N/A,Snow,Light Snow,340,2013-02-11 12:35:00
6:55 AM,28.4,26.6,93,29.52,4.0,NNW,10.4,-,N/A,Snow,Light Snow,340,2013-02-11 12:55:00
7:15 AM,28.4,26.6,93,29.53,5.0,North,12.7,-,N/A,Snow,Light Snow,350,2013-02-11 13:15:00
7:35 AM,26.6,24.8,93,29.55,2.5,NNW,11.5,-,N/A,Snow,Light Snow,340,2013-02-11 13:35:00
7:55 AM,26.6,24.8,93,29.57,10.0,NNW,11.5,-,N/A,Snow,Light Snow,340,2013-02-11 13:55:00
8:15 AM,26.6,23.0,86,29.58,10.0,NNW,11.5,19.6,N/A,,Overcast,340,2013-02-11 14:15:00
8:35 AM,26.6,23.0,86,29.59,10.0,NNW,16.1,19.6,N/A,,Overcast,340,2013-02-11 14:35:00
8:55 AM,26.6,23.0,86,29.61,10.0,North,13.8,-,N/A,Snow,Light Snow,350,2013-02-11 14:55:00
9:15 AM,26.6,21.2,80,29.62,10.0,NNW,12.7,17.3,N/A,,Overcast,340,2013-02-11 15:15:00
9:35 AM,26.6,21.2,80,29.63,10.0,NNW,10.4,19.6,N/A,,Overcast,340,2013-02-11 15:35:00
9:55 AM,26.6,21.2,80,29.65,10.0,NNW,12.7,16.1,N/A,,Overcast,340,2013-02-11 15:55:00
10:15 AM,26.6,21.2,80,29.66,10.0,NNW,12.7,-,N/A,,Overcast,340,2013-02-11 16:15:00
10:35 AM,26.6,19.4,74,29.67,10.0,NNW,16.1,20.7,N/A,,Overcast,330,2013-02-11 16:35:00
10:55 AM,26.6,19.4,74,29.69,10.0,NNW,15.0,21.9,N/A,,Overcast,330,2013-02-11 16:55:00
11:15 AM,26.6,19.4,74,29.70,10.0,NNW,12.7,16.1,N/A,,Overcast,340,2013-02-11 17:15:00
11:35 AM,26.6,19.4,74,29.71,10.0,NNW,13.8,19.6,N/A,,Overcast,330,2013-02-11 17:35:00
11:55 AM,26.6,21.2,80,29.71,10.0,NNW,13.8,20.7,N/A,,Overcast,330,2013-02-11 17:55:00
12:15 PM,26.6,19.4,74,29.72,10.0,NW,15.0,20.7,N/A,,Overcast,320,2013-02-11 18:15:00
12:35 PM,26.6,19.4,74,29.73,10.0,NNW,15.0,20.7,N/A,,Overcast,330,2013-02-11 18:35:00
12:55 PM,26.6,19.4,74,29.74,7.0,NW,16.1,19.6,N/A,,Overcast,320,2013-02-11 18:55:00
1:15 PM,26.6,19.4,74,29.74,10.0,NNW,18.4,23.0,N/A,,Overcast,330,2013-02-11 19:15:00
1:35 PM,26.6,21.2,80,29.76,4.0,NNW,16.1,25.3,N/A,Snow,Light Snow,330,2013-02-11 19:35:00
1:55 PM,26.6,19.4,74,29.76,10.0,NW,17.3,-,N/A,,Overcast,320,2013-02-11 19:55:00
2:15 PM,26.6,19.4,74,29.78,10.0,NNW,15.0,-,N/A,,Overcast,330,2013-02-11 20:15:00
2:35 PM,26.6,19.4,74,29.79,10.0,NNW,13.8,-,N/A,,Overcast,330,2013-02-11 20:35:00
2:55 PM,26.6,19.4,74,29.79,10.0,NNW,15.0,-,N/A,,Overcast,330,2013-02-11 20:55:00
3:15 PM,26.6,19.4,74,29.80,10.0,NNW,12.7,18.4,N/A,,Overcast,330,2013-02-11 21:15:00
3:35 PM,26.6,19.4,74,29.81,10.0,NW,11.5,20.7,N/A,,Overcast,320,2013-02-11 21:35:00
3:55 PM,26.6,19.4,74,29.82,10.0,NW,15.0,18.4,N/A,,Overcast,320,2013-02-11 21:55:00
4:55 PM,26.6,19.4,74,29.85,10.0,NNW,10.4,19.6,N/A,,Overcast,330,2013-02-11 22:55:00
5:15 PM,26.6,19.4,74,29.86,10.0,NW,9.2,-,N/A,,Overcast,320,2013-02-11 23:15:00
5:35 PM,26.6,19.4,74,29.87,10.0,NW,12.7,16.1,N/A,,Overcast,320,2013-02-11 23:35:00
5:55 PM,26.6,19.4,74,29.88,10.0,NW,9.2,-,N/A,,Overcast,310,2013-02-11 23:55:00
6:15 PM,26.6,19.4,74,29.89,10.0,NW,10.4,-,N/A,,Overcast,310,2013-02-12 00:15:00
6:35 PM,26.6,19.4,74,29.90,10.0,NW,10.4,20.7,N/A,,Overcast,320,2013-02-12 00:35:00
6:55 PM,24.8,17.6,74,29.90,10.0,North,11.5,16.1,N/A,,Overcast,350,2013-02-12 00:55:00
7:15 PM,24.8,19.4,80,29.91,10.0,NW,6.9,-,N/A,,Overcast,310,2013-02-12 01:15:00
7:35 PM,23.0,19.4,86,29.91,10.0,NW,8.1,-,N/A,,Overcast,320,2013-02-12 01:35:00
7:55 PM,23.0,19.4,86,29.92,10.0,NW,8.1,-,N/A,,Overcast,320,2013-02-12 01:55:00
8:15 PM,23.0,17.6,80,29.92,10.0,NW,8.1,-,N/A,,Overcast,310,2013-02-12 02:15:00
8:35 PM,23.0,17.6,80,29.93,10.0,NW,10.4,-,N/A,,Overcast,320,2013-02-12 02:35:00
8:55 PM,23.0,15.8,74,29.94,10.0,NNW,13.8,19.6,N/A,,Overcast,330,2013-02-12 02:55:00
9:15 PM,23.0,17.6,80,29.94,10.0,NNW,8.1,-,N/A,,Overcast,330,2013-02-12 03:15:00
9:35 PM,23.0,17.6,80,29.94,10.0,NW,6.9,-,N/A,,Overcast,320,2013-02-12 03:35:00
9:55 PM,23.0,17.6,80,29.95,10.0,NW,6.9,-,N/A,,Overcast,310,2013-02-12 03:55:00
10:15 PM,21.2,17.6,86,29.96,10.0,WNW,9.2,-,N/A,,Overcast,300,2013-02-12 04:15:00
10:35 PM,21.2,15.8,80,29.96,10.0,WNW,6.9,-,N/A,Snow,Light Snow,290,2013-02-12 04:35:00
10:55 PM,21.2,15.8,80,29.97,10.0,WNW,4.6,-,N/A,Snow,Light Snow,290,2013-02-12 04:55:00
11:15 PM,21.2,15.8,80,29.97,10.0,WNW,4.6,-,N/A,,Overcast,300,2013-02-12 05:15:00
11:35 PM,21.2,15.8,80,29.97,10.0,WNW,4.6,-,N/A,,Overcast,290,2013-02-12 05:35:00
11:55 PM,21.2,15.8,80,29.97,10.0,West,5.8,-,N/A,,Overcast,280,2013-02-12 05:55:00